Fremont, MI

7:20 PM EST on November 14, 2019 (GMT -0500)
Fremont

Weather History for KFFX - September, 2019

Change the Weather History Date:

Tuesday, September 24, 2019

  Actual Average (KMKG) Record (KMKG)
Temperature  
Mean Temperature 61 °F -  
Max Temperature 74 °F 65 °F 89 °F (2017)
Min Temperature 48 °F 45 °F 28 °F (1950)
Degree Days  
Heating Degree Days 4    
Growing Degree Days 11 (Base 50)    
Moisture  
Dew Point 52 °F    
Average Humidity 72    
Maximum Humidity 96    
Minimum Humidity 33    
Precipitation  
Precipitation 0.00 in - - ()
Sea Level Pressure  
Sea Level Pressure 29.90 in    
Wind  
Wind Speed 3 mph ()    
Max Wind Speed 15 mph    
Max Gust Speed 22 mph    
Visibility 7.7 miles    
Events Fog    
Averages and records for this station are not official NWS values.
T = Trace of Precipitation, MM = Missing Value Source: Averaged Metar Reports

Daily Weather History Graph

Daily Weather History Graph

Search for Another Location

Airport or City:

Astronomy

Sep. 24, 2019 Rise Set
Actual Time 7:33 AM EDT 7:38 PM EDT
Civil Twilight 7:04 AM EDT 8:06 PM EDT
Nautical Twilight 6:31 AM EDT 8:39 PM EDT
Astronomical Twilight 5:57 AM EDT 9:13 PM EDT
Moon 2:06 AM EDT (9/24) 5:33 PM EDT (9/24)
Length of Visible Light 13h 01m
Length of Day
12h 04m
Waning Crescent, 23% of the Moon is Illuminated
Sep 24
Waning Crescent
Sep 28
New
Oct 5
First Quarter
Oct 13
Full
Oct 21
Last Quarter

Hourly Weather History & Observations

Time (EDT) Temp. Dew Point Humidity Pressure Visibility Wind Dir Wind Speed Gust Speed Precip Events Conditions
12:15 AM 53.6 °F 52.3 °F 95% 29.98 in 10.0 mi Calm Calm - N/A   Scattered Clouds
12:16 AM 53.6 °F 52.3 °F 95% 29.98 in 10.0 mi Calm Calm - N/A   Scattered Clouds
12:35 AM 54.0 °F 52.9 °F 96% 29.98 in 5.0 mi Calm Calm - N/A   Scattered Clouds
12:59 AM 53.6 °F 52.3 °F 95% 29.98 in 0.5 mi Calm Calm - N/A Fog Fog
1:16 AM 54.0 °F 52.7 °F 95% 29.97 in 2.0 mi Calm Calm - N/A   Clear
1:35 AM 53.4 °F 52.0 °F 95% 29.97 in 3.0 mi Calm Calm - N/A   Clear
1:36 AM 53.6 °F 52.0 °F 94% 29.97 in 4.0 mi Calm Calm - N/A   Clear
1:55 AM 53.4 °F 51.8 °F 94% 29.97 in 5.0 mi Calm Calm - N/A   Clear
1:56 AM 53.6 °F 51.8 °F 94% 29.97 in 5.0 mi Calm Calm - N/A   Clear
2:15 AM 53.2 °F 51.6 °F 94% 29.97 in 2.0 mi Calm Calm - N/A   Clear
2:38 AM 52.0 °F 50.5 °F 95% 29.96 in 10.0 mi Calm Calm - N/A   Mostly Cloudy
2:56 AM 53.4 °F 51.8 °F 94% 29.96 in 7.0 mi Calm Calm - N/A   Scattered Clouds
3:15 AM 53.1 °F 51.8 °F 95% 29.95 in 5.0 mi Calm Calm - N/A   Scattered Clouds
3:16 AM 53.1 °F 51.8 °F 95% 29.95 in 5.0 mi Calm Calm - N/A   Scattered Clouds
3:35 AM 52.7 °F 51.3 °F 95% 29.95 in 5.0 mi Calm Calm - N/A   Scattered Clouds
3:36 AM 52.7 °F 51.3 °F 95% 29.95 in 4.0 mi Calm Calm - N/A   Scattered Clouds
3:59 AM 52.0 °F 50.5 °F 95% 29.95 in 1.2 mi Calm Calm - N/A   Mostly Cloudy
4:17 AM 52.0 °F 50.4 °F 94% 29.95 in 5.0 mi Calm Calm - N/A   Scattered Clouds
4:55 AM 52.7 °F 51.1 °F 94% 29.95 in 5.0 mi Calm Calm - N/A   Mostly Cloudy
5:15 AM 51.4 °F 50.2 °F 95% 29.95 in 2.0 mi Calm Calm - N/A   Mostly Cloudy
5:20 AM 52.2 °F 50.5 °F 94% 29.95 in 1.8 mi Calm Calm - N/A   Mostly Cloudy
5:38 AM 51.6 °F 50.0 °F 94% 29.96 in 1.0 mi Calm Calm - N/A   Overcast
5:56 AM 52.3 °F 50.7 °F 94% 29.96 in 1.0 mi Calm Calm - N/A   Mostly Cloudy
6:15 AM 51.3 °F 49.6 °F 94% 29.96 in 0.5 mi Calm Calm - N/A Fog Fog
6:16 AM 51.3 °F 49.6 °F 94% 29.96 in 0.5 mi Calm Calm - N/A Fog Fog
6:35 AM 49.6 °F 48.4 °F 95% 29.96 in 10.0 mi Calm Calm - N/A   Scattered Clouds
6:59 AM 49.1 °F 47.7 °F 95% 29.97 in 0.5 mi Calm Calm - N/A Fog Fog
7:17 AM 49.8 °F 48.2 °F 94% 29.96 in 0.2 mi Calm Calm - N/A Fog Fog
7:35 AM 49.3 °F 47.7 °F 94% 29.97 in 0.2 mi SE 3.5 mph - N/A Fog Fog
7:55 AM 48.9 °F 47.3 °F 94% 29.97 in 4.0 mi Calm Calm - N/A   Clear
7:56 AM 48.9 °F 47.3 °F 94% 29.97 in 5.0 mi Calm Calm - N/A   Clear
8:15 AM 49.6 °F 47.8 °F 94% 29.97 in 7.0 mi Calm Calm - N/A   Clear
8:38 AM 53.1 °F 51.1 °F 93% 29.97 in 7.0 mi Calm Calm - N/A   Clear
8:56 AM 55.6 °F 53.8 °F 94% 29.97 in 10.0 mi Calm Calm - N/A   Clear
9:15 AM 57.4 °F 56.3 °F 96% 29.97 in 10.0 mi Calm Calm - N/A   Clear
9:35 AM 59.2 °F 58.1 °F 96% 29.98 in 10.0 mi Calm Calm - N/A   Clear
9:36 AM 59.2 °F 58.1 °F 96% 29.98 in 10.0 mi Calm Calm - N/A   Clear
9:59 AM 62.2 °F 60.1 °F 93% 29.98 in 10.0 mi Calm Calm - N/A   Clear
10:17 AM 64.8 °F 61.0 °F 88% 29.97 in 10.0 mi SW 3.5 mph - N/A   Clear
10:35 AM 67.1 °F 58.1 °F 73% 29.96 in 10.0 mi WSW 3.5 mph - N/A   Clear
10:55 AM 68.7 °F 53.2 °F 58% 29.95 in 10.0 mi Calm Calm - N/A   Clear
11:15 AM 70.7 °F 50.7 °F 49% 29.95 in 10.0 mi SW 6.9 mph - N/A   Clear
11:19 AM 70.7 °F 50.4 °F 48% 29.95 in 10.0 mi SW 8.1 mph - N/A   Clear
11:38 AM 71.6 °F 49.6 °F 46% 29.95 in 10.0 mi SW 6.9 mph - N/A   Clear
11:56 AM 72.5 °F 48.7 °F 43% 29.94 in 10.0 mi WSW 8.1 mph - N/A   Clear
12:15 PM 73.4 °F 46.8 °F 39% 29.94 in 10.0 mi SSW 12.7 mph - N/A   Clear
12:35 PM 73.9 °F 43.7 °F 34% 29.93 in 10.0 mi SW 8.1 mph 16.1 mph N/A   Clear
12:59 PM 74.5 °F 43.5 °F 33% 29.92 in 10.0 mi WSW 8.1 mph - N/A   Clear
1:17 PM 74.3 °F 43.0 °F 33% 29.92 in 10.0 mi SW 11.5 mph 16.1 mph N/A   Scattered Clouds
1:35 PM 74.7 °F 44.1 °F 33% 29.91 in 10.0 mi SSW 12.7 mph 17.3 mph N/A   Mostly Cloudy
1:55 PM 74.1 °F 43.3 °F 33% 29.91 in 10.0 mi SW 11.5 mph 17.3 mph N/A   Overcast
2:15 PM 72.9 °F 45.7 °F 38% 29.90 in 10.0 mi SW 10.4 mph - N/A   Overcast
2:38 PM 72.3 °F 48.2 °F 42% 29.89 in 10.0 mi SW 13.8 mph - N/A   Overcast
2:56 PM 71.8 °F 51.6 °F 49% 29.88 in 10.0 mi SW 11.5 mph - N/A   Overcast
3:15 PM 72.7 °F 52.7 °F 49% 29.88 in 10.0 mi SW 10.4 mph - N/A   Overcast
3:16 PM 72.7 °F 52.7 °F 49% 29.88 in 10.0 mi SSW 10.4 mph - N/A   Overcast
3:35 PM 73.0 °F 52.7 °F 49% 29.87 in 10.0 mi SSW 15.0 mph 21.9 mph N/A   Overcast
3:36 PM 73.0 °F 52.7 °F 49% 29.87 in 10.0 mi SSW 15.0 mph 21.9 mph N/A   Overcast
3:59 PM 72.7 °F 53.6 °F 51% 29.86 in 10.0 mi SW 13.8 mph 20.7 mph N/A   Overcast
4:17 PM 74.1 °F 52.9 °F 47% 29.85 in 10.0 mi SSW 15.0 mph 19.6 mph N/A   Scattered Clouds
4:35 PM 72.9 °F 52.2 °F 48% 29.85 in 10.0 mi SW 11.5 mph 19.6 mph N/A   Clear
4:55 PM 72.9 °F 51.8 °F 47% 29.85 in 10.0 mi SW 12.7 mph - N/A   Scattered Clouds
5:15 PM 73.6 °F 51.8 °F 46% 29.84 in 10.0 mi SW 12.7 mph 18.4 mph N/A   Scattered Clouds
5:38 PM 73.4 °F 51.8 °F 47% 29.83 in 10.0 mi SSW 12.7 mph - N/A   Clear
5:56 PM 73.0 °F 51.4 °F 47% 29.83 in 10.0 mi SW 13.8 mph 19.6 mph N/A   Scattered Clouds
6:15 PM 72.5 °F 51.8 °F 48% 29.83 in 10.0 mi SSW 13.8 mph 17.3 mph N/A   Clear
6:35 PM 71.6 °F 52.2 °F 50% 29.83 in 10.0 mi SSW 13.8 mph - N/A   Clear
6:59 PM 70.2 °F 53.2 °F 55% 29.82 in 10.0 mi SSW 8.1 mph 16.1 mph N/A   Clear
7:17 PM 68.9 °F 53.8 °F 58% 29.82 in 10.0 mi South 5.8 mph - N/A   Clear
7:35 PM 67.8 °F 54.0 °F 61% 29.81 in 10.0 mi South 4.6 mph - N/A   Clear
7:55 PM 67.3 °F 54.1 °F 63% 29.80 in 10.0 mi South 4.6 mph - N/A   Clear
8:15 PM 66.7 °F 54.5 °F 65% 29.80 in 10.0 mi South 3.5 mph - N/A   Clear
8:38 PM 65.8 °F 54.5 °F 67% 29.80 in 10.0 mi South 4.6 mph - N/A   Clear
8:56 PM 65.3 °F 54.5 °F 68% 29.79 in 10.0 mi South 4.6 mph - N/A   Clear
9:15 PM 66.0 °F 54.1 °F 65% 29.78 in 10.0 mi South 4.6 mph - N/A   Clear
9:16 PM 66.0 °F 54.1 °F 65% 29.78 in 10.0 mi South 4.6 mph - N/A   Clear
9:35 PM 65.3 °F 54.1 °F 67% 29.77 in 10.0 mi South 3.5 mph - N/A   Clear
9:36 PM 65.3 °F 54.1 °F 67% 29.77 in 10.0 mi South 4.6 mph - N/A   Clear
9:59 PM 64.6 °F 54.0 °F 68% 29.75 in 10.0 mi SSE 4.6 mph - N/A   Clear
10:17 PM 64.6 °F 54.0 °F 68% 29.75 in 10.0 mi South 3.5 mph - N/A   Clear
10:35 PM 63.5 °F 54.1 °F 72% 29.75 in 10.0 mi Calm Calm - N/A   Clear
10:55 PM 64.8 °F 54.1 °F 68% 29.74 in 10.0 mi South 3.5 mph - N/A   Clear
10:56 PM 64.8 °F 54.1 °F 68% 29.74 in 10.0 mi South 3.5 mph - N/A   Clear
11:15 PM 65.8 °F 54.3 °F 66% 29.75 in 10.0 mi SSW 9.2 mph - N/A   Clear
11:38 PM 68.2 °F 53.6 °F 60% 29.75 in 10.0 mi SSW 10.4 mph - N/A   Clear
11:56 PM 68.7 °F 53.1 °F 57% 29.75 in 10.0 mi SW 11.5 mph 18.4 mph N/A   Clear